Location: Zagreb
(45.8000°N, 16.0000°E)
Time: 16:13:31
(UTC+02:00)

Envisat - Pass Details

Date: 01 July 2022
Orbit: 763 x 765 km, 98.2° (Epoch: 16 August)

Event Time Altitude Azimuth Distance (km) Brightness Sun altitude
Rises 04:25:30 0° 26° (NNE) 3,243 7.8 -6.8°
Reaches altitude 10° 04:28:21 10° 42° (NE) 2,311 7.3 -6.4°
Maximum altitude 04:32:13 22° 92° (E) 1,649 5.4 -5.9°
Drops below altitude 10° 04:36:03 10° 141° (SE) 2,296 5.5 -5.4°
Sets 04:38:52 0° 157° (SSE) 3,216 6.0 -5.1°
